Weather Roundup
Issued by NWS

Home | Current Version | Previous Version | Text Only | Print | Product List | Glossary On
Versions: 1 2 3 4 5 6 7 8 9 10 11 12 13 14 15 16 17 18 19 20 21 22 23 24 25 26 27 28 29 30 31 32 33 34 35 36 37 38 39 40 41 42 43 44 45 46 47 48 49 50
498
NZUS93 KARX 261110
HRRWXR

CURRENT HOURLY OBSERVATIONS ACROSS
MUCH OF THE UPPER MISSISSIPPI VALLEY
NATIONAL WEATHER SERVICE LA CROSSE WI
500 AM CST SUN FEB 26 2017


...SOUTHEAST MINNESOTA...


CITY           SKY/WX    TMP DP  RH WIND       PRES   REMARKS
ROCHESTER      CLEAR     22  16  78 S16       29.74F WCI   8
ROCHESTER/MAYO FAIR      25  17  71 S13G23    29.75F WCI  14
WINONA         CLEAR     30  21  69 SW6       29.80F WCI  24
AUSTIN         CLEAR     19  14  79 S8        29.76F WCI   9
ALBERT LEA     CLEAR     25  18  74 SW9       29.75F WCI  15
DODGE CENTER   NOT AVBL
PRESTON        CLEAR     23  17  75 S10       29.77F WCI  13
OWATONNA       PTCLDY    21  16  79 S12       29.75S WCI   9
FARIBAULT      PTCLDY    23  18  80 S8        29.75S WCI  14
$$

...ELSEWHERE IN MINNESOTA...


CITY           SKY/WX    TMP DP  RH WIND       PRES   REMARKS
MINNEAPOLIS    CLOUDY    25  16  68 SW10      29.74F WCI  15
INTNL FALLS    LGT SNOW  11   6  81 NW5       29.66S WCI   3
DULUTH         CLOUDY    25  22  88 SW8       29.62S WCI  16
RED WING       CLOUDY    27  16  63 SW6       29.76S WCI  20
REDWOOD FALLS  PTCLDY    23  18  81 SW6       29.72S WCI  16
MANKATO          N/A     21  16  81 S10       29.75  WCI  10
WORTHINGTON    CLEAR     19  16  88 SW9       29.74S WCI   8
FAIRMONT       PTCLDY    21  16  81 SW16      29.76S WCI   7
$$

...SOUTHWEST WISCONSIN...


CITY           SKY/WX    TMP DP  RH WIND       PRES   REMARKS
LA CROSSE      CLEAR     28  19  69 S10       29.81F WCI  19
PRAIRIE DU CHI CLOUDY    31  16  55 S13       29.85F WCI  21
BOSCOBEL       CLOUDY    29  18  63 S6        29.87F WCI  23
LONE ROCK      CLOUDY    27  18  69 CALM      29.88F
PLATTEVILLE    CLOUDY    27  22  79 S14       29.87F WCI  16
FORT MC COY    MOCLDY    24  18  77 S3        29.83F
CAMP DOUGLAS   MOCLDY    24  17  73 S10       29.81F WCI  14
MAUSTON-NEW LI CLOUDY    25  18  74 S9        29.83F WCI  15
VIROQUA        FAIR      23  18  81 S8        29.81S WCI  13
WIS DELLS      CLOUDY    24  18  77 S10       29.85F WCI  13
$$

...ELSEWHERE IN WISCONSIN...


CITY           SKY/WX    TMP DP  RH WIND       PRES   REMARKS
MILWAUKEE      CLOUDY    24  16  71 S8        29.96F WCI  15
MADISON        CLOUDY    25  18  74 S8        29.90F WCI  16
GREEN BAY      CLOUDY    22  19  89 S9        29.88F WCI  12
EAU CLAIRE     CLOUDY    20  14  77 S3        29.75F
BLACK RVR FLS  CLOUDY    23  17  77 CALM      29.79F
MEDFORD        CLOUDY    20  14  76 S9        29.74S WCI  10
WAUSAU         CLOUDY    20  15  81 S10       29.77F WCI   9
WIS RAPIDS     CLOUDY    22  17  81 S9        29.82F WCI  12
MARSHFIELD     CLOUDY    20  14  77 S10       29.76F WCI   9
RICE LAKE      FLURRIES  23  17  80 S8        29.74S WCI  14
$$

...NORTHEAST IOWA...


CITY           SKY/WX    TMP DP  RH WIND       PRES   REMARKS
WATERLOO       CLOUDY    29  19  66 S14       29.83S WCI  18
DUBUQUE        CLOUDY    27  19  72 S17       29.87F WCI  14
DECORAH        CLOUDY    27  19  74 S9G17     29.79F WCI  17
MASON CITY     CLEAR     22  15  75 SW9       29.79F WCI  12
CHARLES CITY   CLOUDY    27  21  80 S8        29.81S WCI  18
OELWEIN        CLOUDY    28  21  74 S14       29.83S WCI  17
$$

...ELSEWHERE IN IOWA...


CITY           SKY/WX    TMP DP  RH WIND       PRES   REMARKS
DES MOINES     PTCLDY    31  19  61 W10       29.87R WCI  22
IOWA CITY      CLOUDY    31  18  58 S14       29.93F WCI  21
FORT DODGE     CLEAR     21  14  73 SW7       29.81S WCI  13
MARSHALLTOWN   CLEAR     29  19  66 SW17      29.83S WCI  17
CEDAR RAPIDS   CLOUDY    30  19  63 S18G29    29.87F WCI  18
$$

...NORTHERN ILLINOIS...


CITY           SKY/WX    TMP DP  RH WIND       PRES   REMARKS
CHICAGO-OHARE  CLOUDY    25  18  74 S8        30.01S WCI  16
CHICAGO-MIDWAY CLOUDY    26  17  68 S9        30.03S WCI  17
MOLINE         CLOUDY    31  16  54 S12       29.96F WCI  22
ROCKFORD       CLOUDY    26  20  77 S12       29.99S WCI  16
PEORIA         CLOUDY    26  16  65 S9        30.05R WCI  17
$$

NOTE: "FAIR" INDICATES FEW OR NO CLOUDS BELOW 12,000 FEET WITH NO
SIGNIFICANT WEATHER AND/OR OBSTRUCTIONS TO VISIBILITY. WIND
SPEEDS ARE IN MILES-PER-HOUR.




USA.gov is the U.S. government's official web portal to all federal, state and local government web resources and services.